Regional Weather Roundup
Issued by NWS

Home | Current Version | Previous Version | Graphics & Text | Print | Product List | Glossary On
Versions: 1 2 3 4 5 6 7 8 9 10 11 12 13 14 15 16 17 18 19 20 21 22 23 24 25 26 27 28 29 30 31 32 33 34 35 36 37 38 39 40 41 42 43 44 45 46 47 48 49 50
000
ASUS45 KBOI 221210
RWRID
WEATHER ROUNDUP FOR IDAHO
NATIONAL WEATHER SERVICE BOISE ID
600 AM MDT TUE JUL 22 2014

NOTE: "FAIR" INDICATES FEW OR NO CLOUDS BELOW 12000 FEET
WITH NO SIGNIFICANT WEATHER AND/OR OBSTRUCTIONS TO VISIBILITY

IDZ012-014-221300-
SOUTHWEST IDAHO


CITY           SKY/WX    TMP DP  RH WIND       PRES   REMARKS
BOISE          CLEAR     66  54  65 SE5       30.09F
CALDWELL       CLEAR     63  48  59 SE8       30.10S
MOUNTAIN HOME  CLEAR     59  57  93 E9        30.11R
$$

IDZ016-017-221300-
SOUTHCENTRAL IDAHO


CITY           SKY/WX    TMP DP  RH WIND       PRES   REMARKS
BURLEY         CLEAR     55  53  93 NE3       30.19R
JEROME         CLEAR     58  53  84 NE5       30.18S
TWIN FALLS     CLEAR     60  48  64 CALM      30.19R
$$

IDZ019>023-221300-
SOUTHEAST IDAHO


CITY           SKY/WX    TMP DP  RH WIND       PRES   REMARKS
IDAHO FALLS    PTCLDY    61  51  70 SW9       30.24R
POCATELLO      CLEAR     58  52  80 SE5       30.23R
REXBURG        CLEAR     53  50  89 NE3       30.24S
$$

IDZ006-010-011-018-031-032-221300-
CENTRAL IDAHO MOUNTAINS


CITY           SKY/WX    TMP DP  RH WIND       PRES   REMARKS
MCCALL         MOCLDY    57  53  86 CALM      30.19R
HAILEY         CLEAR     54  46  76 NW10      30.27S
STANLEY          N/A     47  45  93 CALM      30.32R
SALMON         MOCLDY    61  52  72 CALM      30.15R
CHALLIS        PTCLDY    57  46  66 CALM      30.22R
$$

IDZ002-004-006-007-026-221300-
NORTHERN IDAHO


CITY           SKY/WX    TMP DP  RH WIND       PRES   REMARKS
LEWISTON       CLOUDY    70  47  43 VRB3      29.99R
LOWELL           N/A     61  52  72 NW5       30.07R
COEUR D`ALENE  CLOUDY    59  50  72 MISG      30.04S
MULLAN PASS    CLOUDY    56  30  37 S5        30.22S
$$


USA.gov is the U.S. government's official web portal to all federal, state and local government web resources and services.